Regional Weather Roundup
Issued by NWS Green Bay, WI

Home | Current Version | Previous Version | Text Only | Print | Product List | Glossary On
Versions: 1 2 3 4 5 6 7 8 9 10 11 12 13 14 15 16 17 18 19 20 21 22 23 24 25 26 27 28 29 30 31 32 33 34 35 36 37 38 39 40 41 42 43 44 45 46 47 48 49 50
000
ASUS43 KGRB 282259
RWRGRB

NORTH-CENTRAL AND NORTHEAST WISCONSIN REGIONAL WEATHER ROUNDUP
NATIONAL WEATHER SERVICE GREEN BAY WI
500 PM CST SAT FEB 28 2015

WIZ005-009-010>012-018-019-010000-
NORTH CENTRAL WISCONSIN

CITY           SKY/WX    TMP DP  RH WIND       PRES   REMARKS
IRONWOOD       CLEAR     19  -4  35 SW15G21   30.29F WCI   5
MANITOWISH WTR NOT AVBL
ARBOR VITAE    NOT AVBL
EAGLE RIVER    NOT AVBL
LAND O LAKES   NOT AVBL
RHINELANDER    CLEAR     15  -4  42 S14G20    30.36F WCI   0
PHILLIPS       NOT AVBL
ANTIGO         NOT AVBL
TOMAHAWK       NOT AVBL
MERRILL        NOT AVBL
$$

WIZ013-073-010000-
NORTHEAST WISCONSIN

CITY           SKY/WX    TMP DP  RH WIND       PRES   REMARKS
IRON MOUNTAIN  CLEAR     22  -1  36 S12       30.37F
MARINETTE      CLEAR     18   0  45 S12G17    30.47F WCI   5
$$

WIZ017-030-035>037-045-010000-
CENTRAL WISCONSIN

CITY           SKY/WX    TMP DP  RH WIND       PRES   REMARKS
MEDFORD        NOT AVBL
WAUSAU           N/A     17  -4  39 S12       30.40F WCI   4
MOSINEE        NOT AVBL
MARSHFIELD     CLEAR     17  -3  41 SW9       30.40F WCI   6
WISC RAPIDS    CLEAR     17  -5  37 SW9       30.45F WCI   6
STEVENS POINT  NOT AVBL
WAUPACA        NOT AVBL
SHAWANO        NOT AVBL
CLINTONVILLE   NOT AVBL
$$

WIZ038-039-048-051-010000-
FOX VALLEY

CITY           SKY/WX    TMP DP  RH WIND       PRES   REMARKS
NWS GREEN BAY  CLEAR     18   1  47 S12       30.50F WCI   5
APPLETON       PTCLDY    18   0  45 S10       30.49F WCI   6
OSHKOSH        CLEAR     17   0  47 S10       30.50F WCI   5
FOND DU LAC    CLEAR     18  -1  43 S10       30.50F WCI   6
$$

WIZ022-050-052-010000-
EAST CENTRAL WISCONSIN

CITY           SKY/WX    TMP DP  RH WIND       PRES   REMARKS
STURGEON BAY   CLEAR     19   1  45 SW8       30.51F WCI   9
MANITOWOC      NOT AVBL
SHEBOYGAN      CLEAR     18   4  54 SE10      30.51F WCI   6
$$

LMZ563-521-522-541>543-010000-
LAKESHORE

STATION/POSITION TIME  TEMP    WIND        PRES    VSBY  WAVE
                       AIR SEA DIR/SP/G                  HT/PER
                 (UTC) (F)     (DEG/KT/KT) (MB)    (MI)  (FT/S)
SHEBOYGAN LKSHOR 2200   18     170/ 15/ 17 1036.1F
KEWAUNEE LKSHORE 2200   20     180/ 16/ 18 1032.6F
TWO RIVERS CG    2200   19                 1034.1      6
NORTHPORT PIER   2200   21     190/  5/ 10 1032.5F
SISTER BAY LKSHO 2200   27     280/ 10/ 10   N/A
STURGEON BAY CG  2200   20     180/ 12     1034.4      6   1
CHAMBERS ISLAND  2200   17     190/  7/ 13 1032.8F
MENOMINEE LKSHOR 2200   18     190/ 11     1033.1F
$$


USA.gov is the U.S. government's official web portal to all federal, state and local government web resources and services.